Content
SEND FEEDBACK

Daily
Averages
Monthly
Summary
United States of America

HETTINGER, NORTH DAKOTA


Home > North America > United States > North Dakota
Elevation: 2715 feet     Latitude: 45 59N     Longitude: 102 39W

WEATHER
 
SELECT A DAY
Number of Records: 193,231;   Date Range: 7/1/96 - 11/27/14
 
SHARE

PRINT THIS DATA

[ ← Previous Day ]
WEATHER ALMANAC - JANUARY 31, 2013
[ Next Day → ]
[ °C ]   °F
Weather ElementAverageHighLow
Temperature-6.3 °F7 °F (11:53 pm)-16.1 °F (6:53 am)
Dewpoint-14.8 °F-0.9 °F (11:53 pm)-23.1 °F (6:53 am)
Humidity66.7 %77 % (4:44 am)56 % (12:53 pm)
Barometer30.31 in30.49 in (9:53 am)30.05 in (3:28 am)
Wind Speed15.3 mph27.6 mph (2:53 am)
Wind Gust34.5 mph (2:53 am)
Weather ElementAverage
Visibility9.7 mi
Wind DirectionWNW (283.2 °)

Weather ElementTotal
Precipitation---
Heating Degree Days69.6 (Base 65)
Averaged from 28 records on January 31, 2013
WEATHER CONDITIONS BREAKOUT
WIND DIRECTION BREAKOUT
WEATHER BY HOUR - JANUARY 31, 2013
[ °C ]   °F
Local TimeTemperatureDewpointHumidityBarometerVisibilityWind DirectionWind SpeedGust SpeedPrecipitationEventsConditions
1:53 AM-5.1 °F-13.0 °F69 %30.19 in6.0 miNNW (330°)26.5 mph31.1 mph0.00 inOvercast
2:53 AM-9.0 °F-18.0 °F65 %30.24 in10.0 miNNW (330°)27.6 mph34.5 mph0.00 inMostly Cloudy
3:28 AM-11.2 °F-18.4 °F70 %30.05 in9.0 miNW (320°)18.4 mph27.6 mphScattered Clouds
3:37 AM-11.2 °F-18.4 °F70 %30.06 in6.0 miNW (320°)20.7 mph26.5 mphHaze
3:53 AM-11.9 °F-18.9 °F71 %30.29 in10.0 miNW (320°)24.2 mph31.1 mphOvercast
4:14 AM-13.0 °F-20.2 °F70 %30.07 in10.0 miNW (320°)18.4 mph29.9 mphScattered Clouds
4:44 AM-14.8 °F-20.2 °F77 %30.09 in10.0 miNW (320°)25.3 mph33.4 mphPartly Cloudy
4:53 AM-14.1 °F-20.9 °F71 %30.32 in10.0 miNW (320°)23.0 mph31.1 mphClear
5:00 AM-14.8 °F-20.2 °F77 %30.10 in10.0 miNW (320°)18.4 mph31.1 mphPartly Cloudy
5:53 AM-15.0 °F-22.0 °F71 %30.37 in10.0 miNW (320°)21.9 mph28.8 mphPartly Cloudy
6:53 AM-16.1 °F-23.1 °F71 %30.40 in10.0 miNW (310°)15.0 mphClear
7:53 AM-16.1 °F-23.1 °F71 %30.44 in10.0 miNW (310°)10.4 mphClear
8:53 AM-14.1 °F-22.0 °F68 %30.48 in10.0 miWNW (290°)17.3 mphClear
9:53 AM-11.9 °F-20.9 °F64 %30.49 in10.0 miWNW (290°)18.4 mph23.0 mphClear
10:53 AM-9.0 °F-18.9 °F62 %30.48 in10.0 miWest (280°)17.3 mph21.9 mphClear
11:53 AM-6.0 °F-17.0 °F59 %30.46 in10.0 miWNW (290°)19.6 mphClear
12:53 PM-2.9 °F-15.0 °F56 %30.42 in10.0 miWNW (300°)16.1 mphClear
1:53 PM-0.9 °F-13.0 °F57 %30.40 in10.0 miWNW (290°)15.0 mphClear
2:53 PM0.0 °F-11.9 °F57 %30.39 in10.0 miWNW (300°)12.7 mphClear
3:53 PM-0.9 °F-11.9 °F60 %30.40 in10.0 miWest (280°)12.7 mphClear
4:53 PM-2.9 °F-13.0 °F62 %30.39 in10.0 miWNW (290°)5.8 mphMostly Cloudy
5:53 PM0.0 °F-9.9 °F63 %30.38 in10.0 miWest (270°)6.9 mphOvercast
6:53 PM1.9 °F-7.1 °F66 %30.36 in10.0 miWSW (240°)4.6 mphOvercast
7:53 PM3.0 °F-6.0 °F66 %30.35 in10.0 miWSW (250°)6.9 mphOvercast
8:53 PM3.9 °F-5.1 °F66 %30.32 in10.0 miSSW (200°)6.9 mphOvercast
9:53 PM3.9 °F-4.0 °F70 %30.28 in10.0 miSouth (170°)5.8 mphOvercast
10:53 PM6.1 °F-2.0 °F69 %30.26 in10.0 miSouth (190°)5.8 mphOvercast
11:53 PM7.0 °F-0.9 °F70 %30.22 in10.0 miSSE (160°)6.9 mphOvercast
Hourly data recorded from KHEI, located miles away from Hettinger, North Dakota







STORIES FROM OUR PARTNERS